Location: Unspecified
(22.6800°N, 112.2000°E)
Time: 02:09:57
(UTC+08:00)

Tiros 1 despin weight - Pass Details

Date: 03 August 2021
Orbit: 593 x 641 km, 48.2° (Epoch: 19 September)

Event Time Altitude Azimuth Distance (km) Brightness Sun altitude
Rises 19:48:30 0° 322° (NW) 2,926 ? -8.8°
Reaches altitude 10° 19:50:55 10° 329° (NNW) 2,011 ? -9.4°
Maximum altitude 19:55:23 47° 43° (NE) 831 ? -10.3°
Enters shadow 19:58:55 15° 113° (ESE) 1,664 ? -11.0°
